Location: Peterborough
(44.3091°N, 78.3197°W)
Time: 17:36:53
(UTC-04:00)

Explorer 7 - Pass Details

Date: 28 March 2023
Orbit: 477 x 653 km, 50.3° (Epoch: 04 June)

Event Time Altitude Azimuth Distance (km) Brightness Sun altitude
Rises 19:47:15 0° 285° (WNW) 2,857 13.1 -2.9°
Reaches altitude 10° 19:49:45 10° 294° (WNW) 1,922 11.2 -3.4°
Maximum altitude 19:53:49 36° 2° (N) 908 8.0 -4.1°
Drops below altitude 10° 19:57:40 10° 70° (ENE) 1,812 8.9 -4.8°
Enters shadow 19:58:57 - 76° (ENE) 2,286 9.4 -5.0°
Sets 19:59:57 0° 79° (E) 2,671 - -5.2°
